STARLINK-36399, 67665

Orbit data source: Space-Track

STARLINK-36399, 67665 is a payload satellite owned by SpaceX/Seattle (US) in SSO that was launched on Mon, 02 Feb 2026 UTC via an FALCON 9 launch vehicle from the Air Force Western Test Range (AFWTR). Payload-class satellites include a variety of spacecraft equipped with specific instruments for various scientific and technological missions. These include communications satellites like Starlink; space stations such as the ISS; scientific satellites like the Hubble; Earth observation satellites from companies like Planet Labs, Umbra, and HawkEye 360; GPS; miniature CubeSats for education and research; and military/defense satellites.

Loading next visibility...
Identifier
67665, 2026-022T
Orbit
SSO
Country
Flag of USUS
Related business
Manufacturer
SpaceX/Seattle
Mission
Operational spacecraft
Bus & Motor
STARLINK V2MO, Unknown motor
Mass
575 kg wet, ~530 kg dry
Launch date (UTC)
2026-02-02 (2 months ago)
Launch vehicle
FALCON 9
Launch site
Air Force Western Test Range (AFWTR)
Object type
Payload
Rocket body
Debris
Shape & HBR
Unknown shape, 17.7 m
Radar Cross Section
RCS unknown

Expand to show TLE details & history
Last TLE update: 13 hours ago

TLE from 13 hours ago
0 STARLINK-36399
1 67665U 26022T   26095.07993531  .00036162  00000-0  11168-2 0  9998
2 67665  97.2840 128.9920 0002001 101.7651 258.3816 15.33453319  9613
Epoch: 2026-04-05T01:55Z
TLE epoch observation values (Epoch: 2026-04-05T01:55:06.410Z)
Latitude
-0.00007°
Longitude
-93.1752°
Altitude
468.907 km
Speed
7.632 km/s
True Right ascension
08h 35m 58s
True Declination
0° 00' 00"
Sunlit
Object was in full shadow at epoch
Visualization orbit readout
Latitude
Unknown
Longitude
Unknown
Altitude
Unknown
Speed
Unknown
Apparent Right ascension
Unknown
Apparent Declination
Unknown
Sunlit
N/A
Visualization observer readout
Local Sidereal Time
20:55:55
Azimuth
Unknown
Elevation
Unknown
Doppler factor
Unknown
Orbital elements
Apogee altitude
463.83 km
Perigee altitude
461.092 km
Semi-major axis
6,840.598 km
Eccentricity
0.0002
Inclination
97.284°
RAAN
128.992°
Arg. of periapsis
101.7651°
True anomaly
258.35914°
Mean anomaly
258.3816°
Eccentric anomaly
258.37037°
Mean motion
3.83621 °/min
Orbital period
93.84 mins
BSTAR
0.0011168
Loading maneuver chart data...
Computing Atmospheric mass density...
Loading historical data...
Loading historical data...
Loading historical data...
Loading historical data...
Loading historical data...
Loading historical data...
Loading historical data...

Documentation

Showing up to 5 results
|